When you browse on this site, cookies collect data to enhance your experience and personalize the content and advertising you see.
Visit our Privacy Policy to learn more. By continuing to use the site, you agree to this use of cookies and data.
  • în România
  • Lista ţărilor
  • Pe 7 zile
  • Temperatura apei
  • Meteo pe hartă
  • Widget-uri
  • user-avatar
    Intrare

    Meteo pe oră la Yevlakh

    Astăzi, 22 Septembrie, Duminică

    Timp Temperatura Precipitaţii Vânt Presiune Umiditate
    00:00 +19°C° 0 mm 12 m/s 760 mmHg 37%
    01:00 +19°C° 0.1 mm 11 m/s 760 mmHg 38%
    02:00 +18°C° 0.1 mm 11 m/s 761 mmHg 42%
    03:00 +17°C° 0.1 mm 10 m/s 761 mmHg 45%
    04:00 +17°C° 0.1 mm 9 m/s 762 mmHg 45%
    05:00 +17°C° 0.1 mm 8 m/s 763 mmHg 45%
    06:00 +17°C° 0.1 mm 7 m/s 763 mmHg 45%
    07:00 +19°C° 0 mm 6 m/s 764 mmHg 43%
    08:00 +20°C° 0 mm 5 m/s 765 mmHg 41%
    09:00 +20°C° 0 mm 5 m/s 765 mmHg 38%
    10:00 +22°C° 0 mm 5 m/s 765 mmHg 34%
    11:00 +23°C° 0 mm 4 m/s 765 mmHg 31%
    12:00 +25°C° 0 mm 4 m/s 765 mmHg 27%
    13:00 +25°C° 0 mm 3 m/s 764 mmHg 25%
    14:00 +26°C° 0 mm 3 m/s 764 mmHg 24%
    15:00 +26°C° 0 mm 3 m/s 764 mmHg 23%
    16:00 +24°C° 0 mm 2 m/s 764 mmHg 26%
    17:00 +23°C° 0 mm 2 m/s 764 mmHg 29%
    18:00 +22°C° 0 mm 1 m/s 763 mmHg 32%
    19:00 +20°C° 0 mm 2 m/s 764 mmHg 37%
    20:00 +19°C° 0 mm 3 m/s 764 mmHg 43%
    21:00 +18°C° 0 mm 4 m/s 765 mmHg 48%
    22:00 +17°C° 0 mm 4 m/s 764 mmHg 55%
    23:00 +17°C° 0 mm 3 m/s 764 mmHg 62%

    Mâine, 23 Septembrie, Luni

    Timp Temperatura Precipitaţii Vânt Presiune Umiditate
    00:00 +16°C° 0 mm 3 m/s 764 mmHg 69%
    01:00 +15°C° 0 mm 2 m/s 764 mmHg 71%
    02:00 +15°C° 0 mm 1 m/s 763 mmHg 72%
    03:00 +14°C° 0 mm 1 m/s 763 mmHg 74%
    04:00 +14°C° 0 mm 1 m/s 763 mmHg 75%
    05:00 +14°C° 0 mm 1 m/s 763 mmHg 76%
    06:00 +14°C° 0 mm 1 m/s 763 mmHg 76%
    07:00 +16°C° 0 mm 1 m/s 763 mmHg 66%
    08:00 +19°C° 0 mm 1 m/s 762 mmHg 55%
    09:00 +20°C° 0 mm 2 m/s 762 mmHg 44%
    10:00 +21°C° 0 mm 2 m/s 762 mmHg 40%
    11:00 +24°C° 0 mm 2 m/s 762 mmHg 35%
    12:00 +25°C° 0 mm 2 m/s 761 mmHg 31%
    13:00 +26°C° 0 mm 1 m/s 761 mmHg 29%
    14:00 +26°C° 0 mm 1 m/s 760 mmHg 28%
    15:00 +27°C° 0 mm 1 m/s 759 mmHg 26%
    16:00 +26°C° 0 mm 1 m/s 760 mmHg 29%
    17:00 +24°C° 0 mm 1 m/s 760 mmHg 31%
    18:00 +23°C° 0 mm 1 m/s 760 mmHg 34%
    19:00 +23°C° 0 mm 2 m/s 761 mmHg 39%
    20:00 +21°C° 0 mm 2 m/s 761 mmHg 44%
    21:00 +20°C° 0 mm 3 m/s 762 mmHg 49%
    22:00 +20°C° 0 mm 3 m/s 762 mmHg 58%
    23:00 +19°C° 0 mm 3 m/s 762 mmHg 68%

    Poimâine, 24 Septembrie, Marţi

    Timp Temperatura Precipitaţii Vânt Presiune Umiditate
    00:00 +18°C° 0 mm 3 m/s 762 mmHg 78%
    01:00 +18°C° 0 mm 2 m/s 762 mmHg 78%
    02:00 +18°C° 0 mm 2 m/s 762 mmHg 79%
    03:00 +18°C° 0 mm 1 m/s 762 mmHg 80%
    04:00 +18°C° 0 mm 1 m/s 762 mmHg 80%
    05:00 +18°C° 0 mm 1 m/s 762 mmHg 80%
    06:00 +18°C° 0 mm 1 m/s 762 mmHg 80%
    07:00 +20°C° 0 mm 1 m/s 762 mmHg 75%
    08:00 +21°C° 0 mm 1 m/s 762 mmHg 70%
    09:00 +22°C° 0 mm 1 m/s 763 mmHg 64%
    10:00 +24°C° 0 mm 1 m/s 762 mmHg 58%
    11:00 +25°C° 0 mm 1 m/s 762 mmHg 52%
    12:00 +26°C° 0 mm 2 m/s 761 mmHg 46%
    13:00 +27°C° 0 mm 2 m/s 761 mmHg 46%
    14:00 +27°C° 0 mm 3 m/s 761 mmHg 46%
    15:00 +27°C° 0 mm 3 m/s 760 mmHg 45%
    16:00 +26°C° 0 mm 3 m/s 760 mmHg 49%
    17:00 +25°C° 0 mm 3 m/s 761 mmHg 52%
    18:00 +24°C° 0 mm 3 m/s 761 mmHg 55%
    19:00 +22°C° 0 mm 3 m/s 761 mmHg 58%
    20:00 +21°C° 0 mm 3 m/s 761 mmHg 61%
    21:00 +21°C° 0 mm 3 m/s 761 mmHg 64%
    22:00 +20°C° 0 mm 3 m/s 761 mmHg 68%
    23:00 +20°C° 0 mm 3 m/s 761 mmHg 71%

    25 Septembrie, Miercuri

    Timp Temperatura Precipitaţii Vânt Presiune Umiditate
    00:00 +19°C° 0 mm 2 m/s 761 mmHg 75%
    01:00 +19°C° 0 mm 2 m/s 761 mmHg 78%
    02:00 +19°C° 0 mm 1 m/s 760 mmHg 81%
    03:00 +19°C° 0 mm 1 m/s 760 mmHg 84%
    04:00 +19°C° 0 mm 1 m/s 760 mmHg 85%
    05:00 +16°C° 0 mm 0 m/s 760 mmHg 86%
    06:00 +16°C° 0 mm 0 m/s 760 mmHg 86%
    07:00 +18°C° 0 mm 0 m/s 760 mmHg 79%
    08:00 +20°C° 0 mm 0 m/s 760 mmHg 71%
    09:00 +24°C° 0 mm 1 m/s 760 mmHg 63%
    10:00 +25°C° 0 mm 1 m/s 759 mmHg 58%
    11:00 +26°C° 0 mm 1 m/s 759 mmHg 52%
    12:00 +28°C° 0 mm 1 m/s 759 mmHg 47%
    13:00 +28°C° 0 mm 1 m/s 759 mmHg 44%
    14:00 +29°C° 0 mm 1 m/s 758 mmHg 41%
    15:00 +30°C° 0 mm 1 m/s 758 mmHg 38%
    16:00 +29°C° 0 mm 2 m/s 758 mmHg 40%
    17:00 +27°C° 0 mm 2 m/s 758 mmHg 43%
    18:00 +26°C° 0 mm 2 m/s 759 mmHg 46%
    19:00 +25°C° 0 mm 4 m/s 759 mmHg 53%
    20:00 +25°C° 0 mm 5 m/s 760 mmHg 59%
    21:00 +23°C° 0 mm 6 m/s 760 mmHg 66%
    22:00 +22°C° 0 mm 6 m/s 760 mmHg 70%
    23:00 +21°C° 0 mm 5 m/s 760 mmHg 75%

    26 Septembrie, Joi

    Timp Temperatura Precipitaţii Vânt Presiune Umiditate
    00:00 +21°C° 0 mm 4 m/s 760 mmHg 80%
    01:00 +20°C° 0 mm 4 m/s 760 mmHg 80%
    02:00 +20°C° 0 mm 3 m/s 760 mmHg 80%
    03:00 +19°C° 0 mm 2 m/s 760 mmHg 80%
    04:00 +20°C° 0 mm 1 m/s 760 mmHg 80%
    05:00 +20°C° 0 mm 1 m/s 760 mmHg 81%
    06:00 +18°C° 0 mm 0 m/s 760 mmHg 81%
    07:00 +21°C° 0 mm 1 m/s 760 mmHg 75%
    08:00 +23°C° 0 mm 1 m/s 760 mmHg 70%
    09:00 +24°C° 0 mm 1 m/s 760 mmHg 65%
    10:00 +25°C° 0 mm 1 m/s 760 mmHg 59%
    11:00 +27°C° 0 mm 1 m/s 760 mmHg 54%
    12:00 +28°C° 0 mm 1 m/s 759 mmHg 48%
    13:00 +29°C° 0 mm 1 m/s 759 mmHg 46%
    14:00 +30°C° 0 mm 1 m/s 758 mmHg 43%
    15:00 +30°C° 0 mm 2 m/s 757 mmHg 41%
    16:00 +29°C° 0 mm 1 m/s 758 mmHg 45%
    17:00 +28°C° 0 mm 1 m/s 758 mmHg 48%
    18:00 +26°C° 0 mm 1 m/s 758 mmHg 52%
    19:00 +26°C° 0 mm 1 m/s 758 mmHg 54%
    20:00 +25°C° 0 mm 1 m/s 759 mmHg 57%
    21:00 +25°C° 0 mm 2 m/s 759 mmHg 59%
    22:00 +24°C° 0 mm 2 m/s 759 mmHg 66%
    23:00 +23°C° 0 mm 2 m/s 759 mmHg 73%

    27 Septembrie, Vineri

    Timp Temperatura Precipitaţii Vânt Presiune Umiditate
    00:00 +21°C° 0 mm 3 m/s 759 mmHg 81%
    01:00 +21°C° 0 mm 2 m/s 759 mmHg 83%
    02:00 +20°C° 0 mm 2 m/s 759 mmHg 85%
    03:00 +21°C° 0 mm 1 m/s 759 mmHg 87%
    04:00 +20°C° 0 mm 1 m/s 759 mmHg 88%
    05:00 +18°C° 0 mm 0 m/s 759 mmHg 89%
    06:00 +18°C° 0 mm 0 m/s 759 mmHg 90%
    07:00 +20°C° 0 mm 0 m/s 759 mmHg 82%
    08:00 +23°C° 0 mm 1 m/s 759 mmHg 73%
    09:00 +25°C° 0 mm 1 m/s 758 mmHg 65%
    10:00 +27°C° 0 mm 2 m/s 758 mmHg 58%
    11:00 +28°C° 0 mm 2 m/s 757 mmHg 51%
    12:00 +30°C° 0 mm 3 m/s 757 mmHg 43%
    13:00 +31°C° 0 mm 3 m/s 756 mmHg 39%
    14:00 +33°C° 0 mm 4 m/s 755 mmHg 35%
    15:00 +34°C° 0 mm 4 m/s 754 mmHg 31%
    16:00 +33°C° 0 mm 4 m/s 755 mmHg 33%
    17:00 +31°C° 0 mm 3 m/s 755 mmHg 34%
    18:00 +30°C° 0 mm 3 m/s 755 mmHg 35%
    19:00 +29°C° 0 mm 6 m/s 756 mmHg 36%
    20:00 +29°C° 0 mm 8 m/s 756 mmHg 38%
    21:00 +28°C° 0 mm 11 m/s 757 mmHg 39%
    22:00 +27°C° 0 mm 11 m/s 757 mmHg 40%
    23:00 +27°C° 0 mm 11 m/s 758 mmHg 41%
    Arată mai mult